sat.trackr.live / text

‹ back to catalog

CUTE

NORAD 49263 · 2021-088D

PAYLOAD ACTIVE UNKNOWN

§ Identity

Operator
Country
US
Launch date
2021-09-27
Launch site
AFWTR
Launch vehicle
Mass (kg)
RCS (m²)

External: N2YO · Heavens-Above · Gunter

§ Orbital elements

Epoch: 2026-07-15T19:07:02.295840Z

Period
88.49 min
Inclination
97.3958°
Eccentricity
0.0012958
Mean motion
16.27350180 rev/d
Perigee alt
191.1 km
Apogee alt
208.2 km
Semi-major
6,577.8 km
B*
1.0683e-3
RAAN
299.2359°
Arg perigee
282.5095°
Mean anomaly
77.4748°
Rev number
26,713

§ Raw data

CUTE1 49263U 21088D   26196.79655435  .03733040  24724-5  10683-2 0  99952 49263  97.3958 299.2359 0012958 282.5095  77.4748 16.27350180267131

JSON: /api/v1/satellites/49263 · /tle

For live sub-satellite position, see the globe view (requires WebGL).

§ Visibility from observer

Set your observer location to see the next 7 days of passes ≥ 10°. The values pass through the URL so the page stays shareable.

No JS? Fill the form by hand. The geolocation button needs JavaScript.

§ Radio — SatNOGS DB

ModeDescriptionDownlinkUplink
BPSK Mode S - BPSK500k - BCT S-band SDR (inactive) 2.402 GHz
GFSK Mode U - GFSK9k6 AX.25/G3RUH - SpaceQuest TRX-U (inactive) 437.250 MHz
GMSK Mode U - GMSK19k2 AX.25/G3RUH - SpaceQuest TRX-U (inactive) 437.250 MHz

3 transmitters · refreshed weekly from db.satnogs.org